KD5OH Weather Reports


time (UTC)temp
C
wind
direction
speed
KPH
gust
KPH
rain 1hr
cm
rain 24hr
cm
rain mn
cm
humidity
%
barometer
mb
20260905231621 33 172 25.7 35.4 0.00 0.00 0.00 26 1015.9
20260905230134 35 230 6.4 20.9 0.00 0.00 0.00 25 1015.9
20260905224631 34 248 6.4 12.9 0.00 0.00 0.00 25 1015.8
20260905223144 35 283 9.7 14.5 0.00 0.00 0.00 25 1015.9
20260905221639 34 297 9.7 19.3 0.00 0.00 0.00 25 1015.8
20260905220131 35 253 6.4 16.1 0.00 0.00 0.00 25 1015.8
20260905214626 35 202 4.8 19.3 0.00 0.00 0.00 25 1015.7
20260905213201 34 347 8.0 17.7 0.00 0.00 0.00 26 1015.8
20260905211631 35 241 8.0 16.1 0.00 0.00 0.00 25 1016.1
20260905210128 35 270 9.7 17.7 0.00 0.00 0.00 25 1016.4
20260905204700 34 340 9.7 16.1 0.00 0.00 0.00 27 1016.6
20260905203156 34 275 8.0 12.9 0.00 0.00 0.00 28 1016.8
20260905201646 34 263 8.0 12.9 0.00 0.00 0.00 28 1017.0
20260905200138 34 297 8.0 14.5 0.00 0.00 0.00 28 1017.2
20260905194653 33 308 1.6 9.7 0.00 0.00 0.00 30 1017.4
20260905193124 33 181 3.2 9.7 0.00 0.00 0.00 29 1017.7
20260905191620 32 257 6.4 11.3 0.00 0.00 0.00 31 1017.9
20260905190133 32 266 4.8 11.3 0.00 0.00 0.00 33 1018.3
20260905184621 31 116 3.2 11.3 0.00 0.00 0.00 35 1018.6
20260905183139 31 102 4.8 11.3 0.00 0.00 0.00 35 1018.9
20260905181650 31 149 3.2 8.0 0.00 0.00 0.00 36 1018.9
20260905180126 31 208 6.4 12.9 0.00 0.00 0.00 35 1019.2
20260905174637 31 295 1.6 9.7 0.00 0.00 0.00 37 1019.5
20260905173130 30 210 3.2 11.3 0.00 0.00 0.00 39 1019.7
20260905171627 29 211 4.8 9.7 0.00 0.00 0.00 40 1019.7
20260905170141 28 195 1.6 8.0 0.00 0.00 0.00 42 1019.4
20260905164635 28 251 8.0 11.3 0.00 0.00 0.00 43 1019.5
20260905163127 27 120 6.4 11.3 0.00 0.00 0.00 46 1019.6
20260905161624 27 155 6.4 12.9 0.00 0.00 0.00 47 1019.6
20260905160136 26 197 6.4 12.9 0.00 0.00 0.00 48 1019.7
20260905154629 26 155 6.4 12.9 0.00 0.00 0.00 51 1019.9
20260905153126 26 132 8.0 12.9 0.00 0.00 0.00 51 1019.7
20260905151637 26 158 8.0 16.1 0.00 0.00 0.00 51 1019.8
20260905150134 26 157 9.7 17.7 0.00 0.00 0.00 52 1019.8
20260905144646 25 165 11.3 17.7 0.00 0.00 0.00 53 1019.8
20260905143121 25 146 12.9 19.3 0.00 0.00 0.00 54 1019.7
20260905141635 25 153 11.3 19.3 0.00 0.00 0.00 54 1019.6
20260905134622 23 157 8.0 17.7 0.00 0.00 0.00 56 1019.3
20260905133134 23 147 6.4 16.1 0.00 0.00 0.00 57 1019.2
20260905131650 22 137 6.4 14.5 0.00 0.00 0.00 58 1018.9
20260905130121 21 132 6.4 9.7 0.00 0.00 0.00 57 1018.7
20260905124654 21 151 4.8 9.7 0.00 0.00 0.00 57 1018.5
20260905123129 21 133 6.4 9.7 0.00 0.00 0.00 58 1018.2
20260905121641 21 146 4.8 11.3 0.00 0.00 0.00 58 1018.0
20260905120136 21 147 3.2 9.7 0.00 0.00 0.00 58 1017.7
20260905114628 21 156 4.8 11.3 0.00 0.00 0.00 59 1017.9
20260905113124 20 142 3.2 6.4 0.00 0.00 0.00 58 1017.7
20260905111656 19 135 1.6 3.2 0.00 0.00 0.00 60 1017.5
20260905110150 19 221 0.0 1.6 0.00 0.00 0.00 61 1017.4
20260905104645 19 56 0.0 0.0 0.00 0.00 0.00 61 1017.4
20260905103157 19 56 0.0 0.0 0.00 0.00 0.00 58 1017.1
20260905101628 20 58 0.0 1.6 0.00 0.00 0.00 56 1017.0
20260905100146 20 59 0.0 1.6 0.00 0.00 0.00 56 1016.9
20260905094637 21 282 0.0 0.0 0.00 0.00 0.00 54 1017.0
20260905093133 21 282 0.0 1.6 0.00 0.00 0.00 55 1017.0
20260905091645 21 151 0.0 0.0 0.00 0.00 0.00 54 1016.9
20260905090135 22 151 0.0 0.0 0.00 0.00 0.00 53 1016.9
20260905084652 22 151 0.0 1.6 0.00 0.00 0.00 52 1016.9
20260905083125 22 121 0.0 0.0 0.00 0.00 0.00 52 1016.9
20260905081621 22 121 0.0 0.0 0.00 0.00 0.00 52 1017.0
20260905080135 22 121 0.0 1.6 0.00 0.00 0.00 51 1017.1
20260905074624 22 103 1.6 3.2 0.00 0.00 0.00 52 1017.2
20260905073120 22 118 0.0 1.6 0.00 0.00 0.00 51 1017.1
20260905071631 23 150 0.0 1.6 0.00 0.00 0.00 49 1017.3
20260905070127 23 111 0.0 0.0 0.00 0.00 0.00 49 1017.3
20260905064620 23 111 0.0 0.0 0.00 0.00 0.00 49 1017.2
20260905063136 23 110 0.0 0.0 0.00 0.00 0.00 48 1017.2
20260905061652 23 110 0.0 0.0 0.00 0.00 0.00 48 1017.3
20260905060122 23 111 0.0 0.0 0.00 0.00 0.00 47 1017.3
20260905054635 23 110 0.0 0.0 0.00 0.00 0.00 47 1017.1
20260905053131 23 254 0.0 0.0 0.00 0.00 0.00 46 1017.1
20260905051643 24 151 0.0 0.0 0.00 0.00 0.00 46 1017.4
20260905050138 24 151 0.0 0.0 0.00 0.00 0.00 44 1017.5
20260905044629 24 222 0.0 1.6 0.00 0.00 0.00 43 1017.4
20260905043122 25 229 0.0 1.6 0.00 0.00 0.00 41 1017.4
20260905041639 27 101 0.0 1.6 0.00 0.00 0.00 39 1017.4
20260905040130 26 123 1.6 3.2 0.00 0.00 0.00 39 1017.4
20260905034624 26 40 0.0 0.0 0.00 0.00 0.00 38 1017.3
20260905033136 26 40 0.0 1.6 0.00 0.00 0.00 37 1017.2
20260905031628 27 75 0.0 3.2 0.00 0.00 0.00 36 1017.0
20260905030124 27 45 0.0 0.0 0.00 0.00 0.00 37 1016.8
20260905024634 26 305 0.0 3.2 0.00 0.00 0.00 38 1016.7
20260905023128 27 12 0.0 0.0 0.00 0.00 0.00 36 1016.7
20260905021639 27 12 0.0 0.0 0.00 0.00 0.00 35 1016.4
20260905020129 27 12 0.0 0.0 0.00 0.00 0.00 35 1016.2
20260905014644 28 12 0.0 0.0 0.00 0.00 0.00 33 1016.2
20260905013157 29 12 0.0 0.0 0.00 0.00 0.00 32 1016.2
20260905011630 30 12 0.0 0.0 0.00 0.00 0.00 31 1016.1
20260905010123 30 12 0.0 1.6 0.00 0.00 0.00 32 1016.1
20260905004635 31 319 0.0 4.8 0.00 0.00 0.00 30 1016.1
20260905003151 32 230 0.0 3.2 0.00 0.00 0.00 28 1015.9
20260905001622 32 222 1.6 6.4 0.00 0.00 0.00 28 1015.9
20260905000200 32 223 1.6 8.0 0.00 0.00 0.00 27 1015.8
20260904234631 32 125 0.0 9.7 0.00 0.00 0.00 27 1015.9
20260904233125 33 139 1.6 8.0 0.00 0.00 0.00 26 1015.9